Location: Honolulu
(21.3069°N, 157.8583°W)
Time: 07:16:52
(UTC-10:00)

A-11 Canister half - Pass Details

Date: 12 May 2026
Orbit: 1524 x 1684 km, 47.3° (Epoch: 6 June)

Event Time Altitude Azimuth Distance (km) Brightness Sun altitude
Rises 03:21:15 0° 300° (WNW) 4,925 11.5 -32.0°
Enters shadow 03:21:39 - 299° (WNW) 4,817 11.4 -31.9°
Exits shadow 03:43:46 - 171° (S) 4,471 11.2 -27.8°
Sets 03:45:16 0° 167° (SSE) 4,876 11.4 -27.6°
